QPF
0.00 0.00 0.00 0.00 0.00 0.00 0.00 0.00 0.00 0.00 0.00 0.00 0.00 0.00 0.00 0.00 0.00 0.00 0.00 0.00 0.00 0.00 0.00 0.00 0.00 0.00 0.00 0.00 0.00 0.00 0.00 0.00 0.00 0.00 0.00 0.00 0.00 0.00 0.00 0.01 0.01 0.01 0.02 0.02
0.00 0.00 0.00 0.00 0.00 0.00 0.00 0.00 0.00 0.00 0.00 0.00 0.00 0.00 0.00 0.00 0.00 0.01 0.01 0.00 0.01 0.01 0.01 0.00 0.00 0.00 0.00 0.00 0.00 0.00 0.00 0.00 0.00 0.00 0.00 0.00 0.00 0.00 0.00 0.00 0.00 0.01 0.01 0.02
0.00 0.00 0.00 0.00 0.00 0.00 0.00 0.00 0.00 0.00 0.00 0.00 0.00 0.00 0.00 0.00 0.00 0.00 0.00 0.00 0.01 0.01 0.01 0.00 0.00 0.00 0.00 0.00 0.00 0.00 0.00 0.00 0.00 0.00 0.00 0.00 0.00 0.00 0.00 0.00 0.00 0.00 0.00 0.01
0.00 0.00 0.00 0.00 0.00 0.00 0.00 0.00 0.00 0.00 0.00 0.00 0.00 0.01 0.00 0.00 0.00 0.00 0.00 0.00 0.01 0.02 0.00 0.00 0.00 0.00 0.00 0.00 0.00 0.00 0.00 0.00 0.00 0.00 0.00 0.00 0.00 0.00 0.00 0.00 0.00 0.00 0.00 0.00
0.00 0.00 0.00 0.00 0.00 0.00 0.00 0.00 0.00 0.00 0.00 0.00 0.00 0.00 0.00 0.00 0.03 0.01 0.00 0.00 0.00 0.00 0.00 0.00 0.00 0.00 0.00 0.00 0.00 0.00 0.00 0.00 0.00 0.00 0.00 0.00 0.00 0.00 0.00 0.00 0.00 0.00 0.00 0.00
0.00 0.00 0.00 0.00 0.00 0.00 0.00 0.00 0.00 0.00 0.00 0.00 0.00 0.00 0.00 0.00 0.03 0.00 0.00 0.00 0.00 0.00 0.00 0.00 0.00 0.00 0.00 0.00 0.00 0.00 0.00 0.00 0.00 0.00 0.00 0.00 0.00 0.00 0.00 0.00 0.00 0.00 0.00 0.00
0.00 0.00 0.00 0.00 0.00 0.00 0.00 0.00 0.00 0.00 0.00 0.00 0.00 0.00 0.00 0.00 0.00 0.00 0.00 0.00 0.00 0.00 0.00 0.00 0.00 0.00 0.00 0.00 0.00 0.00 0.00 0.00 0.00 0.00 0.00 0.00 0.00 0.00 0.00 0.00 0.00 0.00 0.00 0.00
0.00 0.00 0.00 0.00 0.00 0.00 0.00 0.00 0.00 0.00 0.00 0.00 0.00 0.00 0.00 0.00 0.00 0.00 0.00 0.00 0.00 0.00 0.00 0.00 0.00 0.00 0.00 0.00 0.00 0.00 0.00 0.00 0.00 0.00 0.00 0.00 0.00 0.00 0.00 0.00 0.01 0.01 0.00 0.00
0.00 0.00 0.00 0.00 0.00 0.00 0.00 0.00 0.00 0.00 0.00 0.00 0.00 0.00 0.00 0.00 0.00 0.00 0.00 0.00 0.00 0.00 0.00 0.00 0.00 0.00 0.00 0.00 0.00 0.00 0.00 0.00 0.00 0.00 0.00 0.00 0.00 0.00 0.00 0.01 0.01 0.01 0.00 0.00
0.00 0.00 0.00 0.00 0.00 0.00 0.00 0.00 0.00 0.00 0.00 0.00 0.00 0.00 0.00 0.00 0.00 0.00 0.00 0.00 0.00 0.00 0.00 0.00 0.00 0.00 0.00 0.00 0.00 0.00 0.00 0.00 0.00 0.00 0.00 0.00 0.00 0.00 0.00 0.00 0.00 0.00 0.00 0.00
0.00 0.00 0.00 0.00 0.00 0.00 0.00 0.00 0.00 0.00 0.00 0.00 0.00 0.00 0.00 0.00 0.00 0.00 0.00 0.00 0.00 0.00 0.00 0.00 0.00 0.00 0.00 0.00 0.00 0.00 0.00 0.00 0.00 0.00 0.00 0.00 0.00 0.00 0.00 0.00 0.00 0.00 0.00 0.00
0.00 0.00 0.00 0.00 0.00 0.00 0.00 0.00 0.00 0.00 0.00 0.00 0.00 0.00 0.00 0.00 0.00 0.00 0.00 0.00 0.00 0.00 0.00 0.00 0.00 0.00 0.00 0.00 0.00 0.00 0.01 0.00 0.00 0.00 0.00 0.00 0.00 0.00 0.00 0.00 0.00 0.00 0.00 0.00
0.00 0.00 0.00 0.00 0.00 0.00 0.00 0.00 0.00 0.00 0.00 0.00 0.00 0.00 0.00 0.00 0.00 0.00 0.00 0.00 0.00 0.00 0.00 0.00 0.00 0.00 0.00 0.00 0.00 0.02 0.02 0.00 0.00 0.00 0.00 0.00 0.00 0.00 0.00 0.00 0.00 0.00 0.00 0.00
0.00 0.00 0.00 0.00 0.00 0.00 0.00 0.00 0.00 0.00 0.00 0.00 0.00 0.00 0.00 0.00 0.00 0.00 0.00 0.00 0.00 0.00 0.00 0.00 0.00 0.00 0.00 0.01 0.01 0.05 0.03 0.00 0.00 0.00 0.01 0.01 0.00 0.00 0.00 0.00 0.00 0.00 0.00 0.00
0.00 0.00 0.00 0.00 0.00 0.00 0.00 0.00 0.00 0.00 0.00 0.00 0.00 0.00 0.00 0.00 0.00 0.00 0.00 0.00 0.00 0.00 0.00 0.00 0.00 0.00 0.00 0.00 0.02 0.04 0.01 0.00 0.00 0.00 0.00 0.01 0.00 0.00 0.00 0.00 0.00 0.00 0.00 0.00
0.00 0.00 0.00 0.00 0.00 0.00 0.00 0.00 0.00 0.00 0.00 0.00 0.00 0.00 0.00 0.00 0.00 0.00 0.00 0.00 0.00 0.00 0.00 0.00 0.01 0.00 0.00 0.00 0.02 0.01 0.00 0.00 0.00 0.00 0.00 0.00 0.00 0.00 0.00 0.00 0.00 0.00 0.00 0.00
0.00 0.00 0.00 0.00 0.00 0.00 0.00 0.00 0.00 0.00 0.00 0.00 0.00 0.00 0.00 0.00 0.00 0.00 0.00 0.00 0.00 0.00 0.00 0.03 0.01 0.00 0.02 0.03 0.05 0.01 0.00 0.00 0.00 0.00 0.00 0.00 0.00 0.00 0.00 0.00 0.00 0.00 0.00 0.00
0.00 0.00 0.00 0.00 0.00 0.00 0.00 0.00 0.00 0.00 0.00 0.00 0.00 0.00 0.00 0.00 0.00 0.00 0.00 0.00 0.00 0.01 0.01 0.02 0.00 0.00 0.03 0.04 0.04 0.01 0.00 0.00 0.00 0.00 0.00 0.00 0.01 0.00 0.00 0.00 0.00 0.00 0.00 0.00
0.00 0.00 0.00 0.00 0.00 0.00 0.00 0.00 0.00 0.00 0.00 0.00 0.00 0.00 0.00 0.00 0.00 0.00 0.00 0.00 0.00 0.01 0.01 0.01 0.01 0.01 0.02 0.05 0.02 0.00 0.00 0.00 0.00 0.00 0.00 0.00 0.00 0.00 0.00 0.00 0.00 0.00 0.00 0.00
0.00 0.00 0.00 0.00 0.00 0.00 0.00 0.00 0.00 0.00 0.00 0.00 0.00 0.00 0.00 0.00 0.00 0.00 0.00 0.00 0.00 0.01 0.01 0.02 0.00 0.00 0.02 0.02 0.01 0.00 0.00 0.00 0.00 0.00 0.00 0.00 0.00 0.00 0.00 0.00 0.00 0.00 0.00 0.00
0.00 0.00 0.00 0.00 0.00 0.00 0.00 0.00 0.00 0.00 0.00 0.00 0.00 0.00 0.00 0.00 0.00 0.00 0.00 0.00 0.00 0.01 0.01 0.00 0.00 0.00 0.01 0.01 0.00 0.00 0.00 0.00 0.00 0.00 0.00 0.00 0.00 0.00 0.00 0.00 0.00 0.00 0.00 0.00
0.00 0.00 0.00 0.00 0.00 0.00 0.00 0.00 0.00 0.00 0.00 0.00 0.00 0.00 0.00 0.00 0.00 0.00 0.00 0.00 0.00 0.00 0.00 0.00 0.00 0.01 0.01 0.01 0.00 0.00 0.00 0.00 0.00 0.00 0.00 0.00 0.00 0.00 0.00 0.00 0.00 0.00 0.00 0.00
0.00 0.00 0.00 0.00 0.00 0.00 0.00 0.00 0.00 0.00 0.00 0.00 0.00 0.00 0.00 0.00 0.00 0.00 0.00 0.00 0.00 0.00 0.00 0.00 0.00 0.00 0.00 0.00 0.00 0.00 0.00 0.00 0.00 0.00 0.00 0.00 0.00 0.00 0.00 0.00 0.00 0.00 0.00 0.00
0.00 0.00 0.00 0.00 0.00 0.00 0.00 0.00 0.00 0.00 0.00 0.00 0.00 0.00 0.00 0.00 0.00 0.00 0.00 0.00 0.00 0.00 0.00 0.00 0.00 0.00 0.00 0.00 0.00 0.00 0.00 0.00 0.00 0.00 0.00 0.00 0.00 0.00 0.00 0.00 0.00 0.00 0.00 0.00
0.00 0.00 0.00 0.00 0.00 0.00 0.00 0.00 0.00 0.00 0.00 0.00 0.00 0.00 0.00 0.00 0.00 0.00 0.00 0.00 0.00 0.00 0.00 0.00 0.00 0.00 0.00 0.00 0.00 0.00 0.00 0.00 0.00 0.00 0.00 0.00 0.00 0.00 0.00 0.00 0.00 0.00 0.00 0.00
0.00 0.00 0.00 0.00 0.00 0.00 0.00 0.00 0.00 0.00 0.00 0.00 0.00 0.00 0.00 0.00 0.00 0.00 0.00 0.00 0.00 0.00 0.00 0.00 0.00 0.00 0.00 0.01 0.01 0.01 0.00 0.00 0.00 0.00 0.00 0.00 0.00 0.00 0.00 0.00 0.00 0.00 0.00 0.00
MSLP
1005.25 1004.21 1003.07 1003.54 1003.76 1003.48 1003.57 1003.83 1004.98 1006.52 1007.23 1007.32 1008.36 1009.62 1010.68 1011.24 1011.80 1012.42 1013.18 1014.08 1014.57 1015.18 1015.26 1015.83 1016.07 1015.90 1015.40 1015.24 1015.18 1015.03 1014.56 1014.12 1013.50 1013.06 1012.69 1012.29 1012.06 1011.85 1011.61 1011.33 1011.48 1011.62 1011.41 1011.05
1004.64 1003.49 1004.11 1004.33 1004.13 1003.79 1003.76 1004.22 1005.52 1006.91 1007.55 1007.71 1008.69 1009.67 1010.67 1011.37 1012.10 1012.71 1013.30 1013.95 1014.62 1015.23 1015.55 1015.96 1016.04 1016.08 1015.92 1015.74 1015.51 1015.40 1015.24 1014.89 1014.39 1013.81 1013.65 1013.45 1012.91 1012.34 1012.08 1011.51 1011.36 1010.95 1010.65 1010.24
1003.08 1003.98 1004.61 1004.26 1004.15 1003.96 1004.02 1004.10 1005.30 1005.79 1007.32 1007.69 1008.36 1009.24 1010.31 1011.39 1012.20 1012.94 1013.63 1014.12 1014.51 1014.97 1015.44 1015.80 1016.10 1016.13 1015.97 1015.92 1015.79 1015.73 1015.57 1015.36 1015.23 1014.79 1014.06 1013.68 1012.99 1012.27 1011.59 1011.27 1010.71 1010.59 1010.35 1009.80
1003.59 1004.39 1004.19 1003.94 1003.98 1004.19 1004.02 1004.75 1005.14 1005.97 1006.26 1006.07 1007.74 1007.34 1009.28 1010.60 1011.78 1012.46 1013.25 1014.01 1014.60 1015.21 1015.51 1015.48 1015.62 1016.01 1016.12 1016.00 1016.05 1016.04 1015.85 1015.63 1015.14 1014.98 1014.25 1013.97 1013.12 1012.30 1011.91 1011.05 1010.72 1010.78 1010.01 1009.45
1004.08 1004.07 1003.97 1003.79 1004.51 1004.54 1004.79 1005.26 1005.33 1005.67 1005.71 1006.28 1006.98 1007.27 1008.40 1009.94 1011.06 1011.96 1012.97 1013.83 1014.45 1015.03 1015.00 1015.24 1015.51 1015.61 1015.44 1015.26 1015.23 1015.55 1015.57 1015.57 1015.30 1014.99 1014.81 1014.27 1013.77 1013.04 1012.20 1011.48 1010.82 1010.15 1009.42 1009.28
1004.11 1004.69 1004.33 1004.34 1004.92 1004.79 1005.35 1005.46 1005.68 1005.95 1005.60 1005.42 1006.56 1007.21 1007.37 1008.71 1010.17 1011.52 1012.23 1013.17 1014.10 1014.37 1014.74 1015.16 1015.20 1015.05 1015.15 1015.21 1015.08 1015.18 1015.38 1015.43 1015.36 1015.11 1014.84 1014.56 1014.11 1013.57 1012.72 1011.89 1011.04 1009.84 1009.62 1008.99
1004.19 1004.30 1004.72 1004.89 1004.58 1005.18 1005.01 1004.96 1004.44 1004.65 1004.79 1004.97 1007.11 1007.47 1008.73 1009.98 1010.82 1011.31 1011.78 1012.80 1013.67 1014.01 1014.41 1014.54 1014.68 1014.68 1014.78 1014.91 1015.13 1015.09 1015.43 1015.32 1015.37 1015.29 1015.09 1014.88 1014.68 1014.21 1013.49 1012.79 1011.79 1011.16 1010.00 1009.27
1003.78 1004.45 1004.75 1005.07 1004.61 1004.27 1004.83 1004.89 1004.60 1004.73 1004.62 1005.13 1007.26 1007.23 1009.44 1010.84 1011.56 1011.91 1012.62 1013.33 1013.89 1014.30 1014.41 1014.52 1014.75 1015.10 1015.01 1015.00 1015.03 1015.03 1014.94 1014.87 1015.14 1015.21 1015.16 1014.98 1014.84 1014.28 1013.79 1013.80 1013.85 1013.19 1012.55 1011.65
1004.42 1004.74 1005.59 1005.66 1005.35 1005.40 1005.07 1005.09 1006.20 1005.94 1006.06 1006.16 1006.58 1008.65 1010.27 1011.13 1011.92 1012.57 1013.13 1013.89 1014.40 1014.78 1014.95 1015.09 1015.42 1015.70 1015.47 1015.15 1015.10 1015.12 1015.21 1015.31 1015.38 1015.40 1015.26 1015.05 1014.92 1014.90 1014.92 1014.92 1014.94 1014.31 1013.72 1013.00
1005.45 1005.43 1005.81 1006.06 1005.91 1005.96 1005.75 1006.51 1006.20 1005.83 1006.10 1006.40 1006.81 1008.69 1009.62 1011.72 1012.53 1013.19 1013.66 1014.31 1014.99 1015.25 1015.60 1015.88 1015.93 1015.81 1015.56 1015.52 1015.45 1015.75 1016.04 1016.05 1016.05 1015.98 1015.91 1015.83 1015.86 1015.88 1015.74 1015.59 1015.39 1015.07 1014.45 1013.63
1006.15 1006.01 1006.15 1006.23 1006.24 1006.04 1006.05 1006.07 1007.10 1007.44 1007.65 1007.72 1008.01 1009.81 1012.60 1013.26 1013.85 1014.11 1014.43 1014.84 1015.35 1015.86 1015.72 1016.01 1015.98 1015.74 1015.97 1016.11 1016.08 1016.45 1016.51 1016.53 1016.70 1016.73 1016.70 1016.90 1016.87 1016.84 1016.73 1016.15 1015.88 1015.62 1014.98 1014.21
1007.82 1007.15 1006.35 1007.00 1007.93 1007.67 1007.56 1007.87 1007.97 1007.83 1008.00 1008.58 1009.90 1011.83 1013.88 1014.36 1014.64 1014.87 1014.94 1015.44 1015.89 1016.21 1016.13 1015.91 1016.10 1016.30 1016.59 1016.68 1016.78 1016.60 1017.35 1017.29 1017.34 1017.41 1017.85 1017.87 1017.86 1017.71 1017.45 1017.04 1016.28 1016.08 1015.58 1015.07
1008.47 1008.39 1007.71 1008.17 1008.43 1008.37 1008.61 1009.11 1009.37 1009.52 1009.61 1009.68 1010.47 1012.22 1014.53 1015.09 1015.22 1015.49 1015.77 1016.17 1016.27 1016.67 1016.48 1016.51 1016.81 1017.01 1017.22 1017.17 1017.98 1017.88 1017.94 1018.18 1018.16 1017.86 1018.18 1018.32 1018.22 1018.28 1018.13 1017.47 1016.74 1016.06 1015.85 1015.62
1009.37 1009.28 1008.65 1008.06 1008.64 1008.80 1009.66 1009.89 1010.08 1009.94 1009.80 1010.40 1011.97 1012.84 1014.37 1015.11 1015.41 1015.74 1016.26 1016.69 1016.78 1016.94 1017.08 1017.20 1017.34 1017.57 1018.07 1018.39 1018.37 1018.36 1018.58 1018.73 1018.81 1018.87 1018.30 1018.75 1019.02 1018.98 1018.74 1017.96 1016.92 1016.44 1015.90 1015.27
1009.71 1009.87 1009.62 1009.78 1009.90 1010.25 1010.69 1010.96 1011.05 1011.24 1011.71 1011.87 1013.05 1013.64 1014.85 1015.53 1016.04 1016.44 1016.66 1017.07 1017.25 1017.42 1017.66 1017.81 1018.35 1018.73 1018.85 1018.70 1018.86 1019.07 1019.30 1019.55 1019.80 1019.09 1018.79 1019.42 1019.71 1019.59 1019.23 1018.31 1017.43 1016.88 1016.36 1015.95
1010.43 1010.48 1010.34 1010.59 1010.84 1011.02 1011.56 1012.00 1012.32 1012.63 1012.90 1013.31 1013.83 1014.42 1015.95 1016.38 1016.71 1016.97 1017.27 1017.75 1018.08 1018.23 1018.37 1018.59 1018.96 1019.54 1019.54 1019.56 1019.45 1020.24 1020.29 1020.60 1020.23 1019.27 1019.01 1019.71 1019.99 1019.70 1019.22 1018.60 1017.86 1017.39 1017.16 1016.83
1010.21 1010.60 1010.33 1010.78 1011.26 1011.53 1011.93 1013.18 1013.36 1013.61 1014.11 1014.39 1014.40 1015.88 1016.47 1016.80 1017.31 1017.62 1018.33 1018.83 1019.12 1019.20 1019.52 1019.86 1020.15 1020.59 1020.32 1020.04 1020.51 1021.02 1021.29 1021.29 1020.22 1019.67 1019.61 1020.23 1020.20 1019.99 1019.85 1018.75 1018.26 1018.14 1017.98 1017.65
1010.35 1010.41 1010.44 1010.86 1011.77 1011.66 1013.52 1014.22 1014.46 1014.61 1015.23 1015.62 1016.11 1016.83 1017.23 1017.60 1017.96 1018.02 1019.44 1020.01 1020.48 1020.93 1020.94 1021.15 1021.11 1020.87 1020.71 1020.71 1021.27 1021.66 1021.80 1021.45 1020.49 1020.34 1020.67 1021.01 1020.95 1020.78 1020.47 1019.21 1019.06 1018.77 1018.43 1018.15
1010.55 1010.49 1010.69 1010.72 1011.15 1013.11 1013.96 1014.45 1014.82 1015.13 1015.73 1016.89 1017.30 1017.69 1018.02 1018.30 1018.04 1019.02 1020.42 1021.19 1021.80 1021.80 1021.63 1021.66 1021.65 1021.12 1020.95 1021.20 1021.82 1021.97 1021.94 1021.19 1021.06 1021.17 1021.21 1021.68 1021.56 1021.07 1020.19 1020.06 1019.72 1019.35 1019.00 1018.64
1011.01 1010.94 1010.62 1011.09 1011.39 1012.25 1013.84 1014.99 1015.65 1015.75 1016.07 1017.86 1018.28 1018.68 1018.93 1018.94 1018.60 1019.69 1021.60 1022.30 1022.53 1022.56 1022.83 1022.39 1022.23 1021.41 1021.16 1021.71 1022.22 1022.19 1021.51 1021.64 1021.83 1021.71 1021.55 1022.00 1021.84 1021.43 1021.10 1020.73 1020.41 1020.19 1019.67 1019.14
1010.80 1010.83 1010.91 1011.61 1012.25 1013.92 1015.05 1015.72 1015.99 1015.93 1018.15 1018.63 1019.26 1019.70 1019.98 1020.28 1021.27 1021.94 1022.76 1023.21 1023.32 1023.05 1022.77 1022.02 1021.62 1021.47 1022.00 1022.41 1022.31 1021.75 1022.12 1022.35 1022.77 1022.18 1022.03 1022.11 1021.94 1021.82 1021.57 1021.36 1021.20 1020.90 1020.45 1019.99
1010.92 1011.11 1011.76 1012.57 1013.07 1014.69 1016.00 1015.99 1016.33 1017.99 1018.80 1019.39 1019.94 1020.60 1020.98 1021.39 1022.00 1022.94 1023.79 1023.47 1023.06 1022.73 1022.50 1022.23 1021.81 1022.60 1022.32 1022.13 1021.75 1022.29 1022.67 1023.22 1023.28 1022.62 1022.49 1022.50 1022.54 1022.20 1021.98 1021.84 1021.52 1021.20 1020.78 1020.39
1011.86 1012.45 1012.59 1014.07 1014.64 1016.32 1016.92 1017.38 1018.30 1018.73 1019.31 1020.12 1020.64 1021.40 1021.76 1022.10 1023.10 1023.80 1023.86 1023.44 1023.17 1022.93 1022.72 1022.62 1022.46 1022.98 1022.56 1022.23 1022.21 1022.72 1023.30 1023.58 1023.82 1023.08 1023.01 1023.00 1022.89 1022.58 1022.25 1022.04 1022.06 1021.80 1021.34 1020.72
1012.73 1013.39 1013.41 1014.60 1016.15 1016.73 1017.65 1018.46 1019.04 1019.59 1020.28 1020.96 1021.50 1021.93 1022.28 1022.88 1023.51 1023.62 1023.57 1023.51 1022.80 1022.67 1022.82 1023.08 1023.14 1022.54 1022.42 1022.59 1022.93 1023.23 1023.66 1023.81 1023.98 1023.53 1023.27 1023.21 1023.06 1022.65 1022.41 1022.34 1022.45 1022.62 1022.39 1021.87
1012.54 1013.45 1014.02 1015.33 1016.25 1017.23 1017.98 1018.72 1019.60 1020.34 1020.95 1021.44 1022.12 1022.43 1022.70 1022.89 1023.48 1023.57 1023.74 1023.21 1022.81 1022.99 1023.27 1023.32 1022.90 1022.46 1022.63 1022.86 1023.16 1023.49 1023.88 1024.00 1024.17 1024.11 1023.43 1023.03 1023.04 1022.85 1022.52 1022.77 1022.91 1023.04 1023.31 1023.30
1013.01 1013.59 1013.55 1014.01 1015.73 1016.40 1017.90 1019.21 1019.96 1020.64 1021.36 1021.93 1022.15 1022.69 1023.34 1023.34 1023.78 1023.44 1023.78 1023.25 1022.84 1023.30 1023.31 1022.71 1022.59 1022.67 1022.80 1022.89 1023.26 1023.70 1024.01 1024.22 1024.16 1024.02 1023.63 1023.58 1023.02 1022.73 1022.87 1022.76 1023.00 1023.52 1023.33 1023.25
Thickness
5805 5798 5800 5800 5804 5807 5803 5798 5781 5777 5784 5779 5766 5755 5751 5755 5749 5740 5734 5725 5720 5713 5714 5709 5705 5704 5707 5705 5701 5699 5700 5702 5705 5701 5696 5694 5691 5690 5688 5688 5681 5677 5677 5677
5795 5793 5801 5802 5802 5801 5799 5788 5772 5772 5777 5775 5761 5749 5750 5748 5740 5736 5729 5724 5717 5711 5708 5703 5700 5698 5696 5694 5693 5690 5686 5685 5686 5685 5681 5676 5674 5675 5673 5674 5673 5674 5673 5673
5800 5796 5799 5798 5794 5790 5791 5788 5775 5773 5769 5774 5761 5742 5741 5742 5739 5733 5727 5722 5718 5711 5703 5698 5692 5689 5689 5684 5681 5678 5675 5673 5670 5670 5672 5670 5669 5667 5666 5665 5666 5664 5665 5668
5799 5802 5796 5796 5789 5793 5777 5795 5787 5772 5766 5760 5767 5745 5743 5739 5728 5727 5722 5717 5711 5703 5698 5695 5690 5682 5676 5674 5671 5667 5665 5662 5662 5660 5661 5657 5658 5657 5655 5657 5655 5651 5654 5657
5784 5791 5792 5789 5784 5794 5779 5789 5783 5778 5772 5764 5756 5750 5741 5743 5723 5721 5718 5712 5707 5700 5697 5689 5683 5678 5677 5676 5671 5666 5661 5655 5653 5649 5645 5642 5640 5643 5646 5645 5646 5646 5647 5644
5795 5805 5801 5796 5792 5795 5790 5780 5776 5773 5772 5751 5756 5752 5748 5743 5734 5722 5722 5715 5704 5700 5695 5686 5682 5680 5674 5670 5666 5661 5654 5647 5642 5638 5634 5628 5625 5624 5626 5628 5628 5634 5631 5632
5787 5789 5798 5800 5786 5789 5787 5773 5758 5749 5751 5752 5753 5745 5734 5737 5735 5729 5722 5712 5704 5700 5691 5685 5680 5676 5669 5664 5659 5653 5643 5637 5630 5623 5617 5612 5606 5603 5602 5604 5609 5607 5613 5615
5772 5756 5786 5794 5789 5784 5779 5776 5758 5727 5743 5758 5750 5738 5727 5732 5731 5728 5720 5709 5699 5692 5689 5682 5677 5670 5666 5660 5653 5645 5639 5631 5621 5613 5605 5601 5595 5592 5588 5582 5576 5577 5579 5582
5769 5763 5785 5786 5792 5788 5774 5765 5772 5750 5755 5742 5753 5735 5731 5730 5720 5715 5707 5698 5689 5683 5679 5673 5665 5657 5652 5650 5642 5636 5626 5617 5609 5601 5595 5590 5584 5577 5570 5563 5556 5557 5556 5558
5776 5753 5776 5779 5787 5785 5778 5774 5752 5762 5722 5717 5744 5726 5725 5707 5703 5701 5693 5684 5676 5672 5663 5655 5649 5643 5640 5633 5623 5612 5601 5591 5585 5580 5574 5567 5560 5554 5549 5544 5540 5538 5538 5541
5780 5771 5763 5775 5766 5763 5767 5762 5752 5748 5739 5718 5719 5718 5704 5695 5691 5685 5682 5676 5668 5656 5653 5644 5637 5631 5622 5612 5604 5592 5584 5578 5569 5562 5557 5547 5542 5536 5530 5530 5527 5523 5524 5526
5763 5764 5753 5751 5759 5768 5761 5746 5747 5730 5724 5730 5718 5699 5696 5691 5687 5681 5675 5667 5657 5649 5642 5634 5625 5614 5602 5594 5588 5582 5566 5560 5553 5547 5538 5532 5526 5521 5517 5514 5516 5512 5512 5512
5758 5743 5735 5731 5745 5753 5739 5739 5736 5732 5729 5711 5704 5694 5689 5683 5678 5673 5663 5655 5647 5637 5630 5621 5609 5598 5588 5582 5569 5562 5555 5545 5540 5537 5528 5522 5517 5510 5504 5505 5506 5507 5505 5502
5751 5738 5735 5734 5728 5742 5720 5727 5730 5728 5718 5712 5692 5690 5682 5676 5670 5665 5655 5646 5637 5627 5615 5605 5595 5585 5573 5566 5560 5554 5544 5537 5531 5524 5523 5512 5505 5499 5495 5497 5501 5500 5500 5502
5748 5722 5734 5732 5733 5729 5720 5716 5718 5710 5708 5697 5687 5682 5674 5670 5662 5655 5650 5639 5627 5616 5606 5594 5578 5566 5560 5557 5551 5545 5537 5528 5519 5520 5516 5503 5495 5490 5487 5489 5492 5491 5491 5490
5738 5717 5727 5714 5724 5722 5708 5710 5708 5703 5699 5693 5686 5676 5671 5666 5661 5650 5640 5627 5614 5605 5596 5581 5567 5553 5548 5546 5545 5532 5527 5517 5514 5517 5513 5499 5490 5486 5483 5482 5483 5482 5478 5477
5730 5719 5720 5702 5716 5713 5701 5694 5695 5695 5693 5685 5675 5666 5666 5656 5647 5640 5626 5616 5604 5595 5581 5568 5556 5545 5544 5544 5536 5526 5518 5511 5515 5513 5506 5492 5485 5479 5474 5477 5475 5470 5467 5466
5723 5722 5723 5706 5703 5689 5692 5700 5695 5686 5680 5680 5672 5663 5658 5649 5643 5641 5621 5605 5591 5579 5572 5563 5556 5552 5548 5544 5533 5523 5515 5510 5514 5507 5495 5484 5477 5471 5467 5473 5468 5465 5462 5459
5732 5724 5708 5704 5704 5690 5688 5691 5686 5678 5672 5668 5661 5656 5651 5647 5645 5626 5610 5597 5584 5577 5574 5566 5559 5557 5553 5544 5532 5522 5516 5517 5510 5500 5492 5480 5473 5470 5472 5466 5463 5461 5458 5456
5722 5724 5718 5706 5695 5684 5690 5690 5689 5686 5670 5661 5656 5647 5641 5641 5633 5622 5603 5593 5584 5577 5567 5565 5559 5561 5556 5545 5532 5524 5524 5515 5505 5497 5492 5480 5474 5470 5466 5462 5459 5455 5454 5454
5708 5711 5705 5699 5693 5685 5688 5685 5687 5670 5653 5655 5648 5640 5634 5624 5614 5606 5595 5586 5580 5576 5572 5574 5570 5564 5552 5541 5534 5533 5522 5511 5499 5497 5491 5482 5476 5470 5465 5460 5455 5451 5450 5450
5706 5703 5698 5696 5691 5675 5684 5683 5675 5660 5656 5650 5643 5634 5625 5618 5610 5597 5585 5586 5585 5582 5578 5575 5572 5556 5553 5546 5543 5531 5519 5506 5498 5497 5490 5483 5475 5470 5466 5460 5457 5454 5453 5453
5696 5701 5700 5686 5685 5677 5677 5670 5665 5661 5653 5644 5637 5627 5620 5612 5598 5587 5586 5587 5584 5580 5577 5574 5569 5555 5552 5549 5543 5531 5518 5507 5497 5497 5489 5482 5476 5471 5467 5464 5459 5457 5458 5462
5697 5698 5695 5684 5674 5674 5668 5664 5660 5655 5646 5638 5631 5622 5616 5605 5595 5593 5591 5587 5589 5586 5579 5571 5564 5562 5557 5550 5541 5530 5519 5511 5502 5498 5492 5485 5479 5476 5473 5469 5464 5460 5460 5462
5704 5697 5689 5674 5675 5670 5666 5661 5654 5647 5641 5634 5625 5618 5612 5607 5597 5594 5589 5591 5591 5583 5576 5570 5568 5566 5558 5551 5542 5533 5523 5515 5506 5498 5497 5492 5485 5480 5479 5474 5471 5467 5460 5456
5701 5692 5695 5692 5683 5680 5665 5658 5652 5643 5634 5628 5623 5614 5606 5603 5594 5596 5588 5590 5590 5579 5576 5577 5574 5567 5560 5554 5544 5535 5526 5518 5512 5506 5503 5495 5492 5488 5483 5482 5479 5470 5466 5463